Regional Weather Roundup
Issued by NWS

Home | Current Version | Previous Version | Graphics & Text | Print | Product List | Glossary Off
Versions: 1 2 3 4 5 6 7 8 9 10 11 12 13 14 15 16 17 18 19 20 21 22 23 24 25 26 27

000
ASUS45 KBOU 210206
RWRCO

WEATHER ROUNDUP FOR COLORADO
NATIONAL WEATHER SERVICE DENVER/BOULDER CO
800 PM MDT SUN APR 20 2014

NOTE: "FAIR" INDICATES FEW OR NO CLOUDS BELOW 12000 FEET WITH NO
SIGNIFICANT WEATHER AND/OR OBSTRUCTIONS TO VISIBILITY.

COZ001>005-013-030-031-210300-
...NORTHWEST COLORADO...

CITY           SKY/WX    TMP DP  RH WIND       PRES   REMARKS
CRAIG          PTCLDY    51  40  65 E10       30.18R
HAYDEN         CLEAR     46  37  71 E10       30.23R
MEEKER         PTCLDY    56  36  47 CALM      30.18R
MOUNT WERNER   PTCLDY    39  27  60 NW6       30.36R
STEAMBOAT SPGS PTCLDY    46  37  69 NE8       30.23R
WALDEN         MOCLDY    41  32  70 SE6       30.25S
$$

COZ006>008-011-210300-
...WEST CENTRAL VALLEYS...

CITY           SKY/WX    TMP DP  RH WIND       PRES   REMARKS
GRAND JUNCTION PTCLDY    59  38  45 NE23      30.12R
MONTROSE       PTCLDY    63  34  33 W10       30.16R
EAGLE          CLOUDY    55  36  47 E7        30.22R
RIFLE          MOCLDY    54  40  59 NE10      30.18R
DELTA          CLOUDY    69  31  24 W8        30.12R
NUCLA            N/A     61  34  36 NE6       30.18R
$$

COZ017>023-064>068-210300-
...SOUTHWEST COLORADO...

CITY           SKY/WX    TMP DP  RH WIND       PRES   REMARKS
DURANGO        PTCLDY    62  24  23 NW15      30.11R
CORTEZ         CLEAR     63  30  28 N8        30.11R
PAGOSA SPRINGS PTCLDY    59  17  19 NW7       30.16R
TELLURIDE      MOCLDY    46  34  61 SE6       30.31R
WOLF CREEK PAS PTCLDY    34  21  60 NE8       30.38R WCI  27
$$

COZ009-010-012-014-032>034-037-058>063-210300-
...CENTRAL COLORADO...

CITY           SKY/WX    TMP DP  RH WIND       PRES   REMARKS
ASPEN          LGT RAIN  45  38  76 NW9       30.28R
BUENA VISTA    CLOUDY    53  25  33 NW9       30.19R
COPPER MTN     CLOUDY    36  28  75 W8        30.41R
BERTHOUD PASS  HAZE      27  18  69 N13G24    30.42R VSB<1/4 WCI  16
COTTONWOOD PAS PTCLDY    48  18  29 N3        30.29R
GUNNISON       MOCLDY    55  27  33 W7        30.23R
KREMMLING      CLOUDY    50  34  53 SW5       30.25S
LEADVILLE      PTCLDY    39  28  64 N20       30.30R
MONARCH PASS   PTCLDY    36  23  60 N7        30.48R
SALIDA         PTCLDY    53  39  60 SE7       30.25S
SUNLIGHT       CLOUDY    36  34  93 SW3       30.39R
WILKERSON PASS MOCLDY    36  28  75 NE7       30.38R
$$

COZ069>075-210300-
...SAN LUIS VALLEY/SANGRE DE CRISTO MOUNTAINS...

CITY           SKY/WX    TMP DP  RH WIND       PRES   REMARKS
ALAMOSA        MOCLDY    58  28  32 NW9       30.14R
LA VETA PASS   MOCLDY    37  32  81 N6        30.31R
SAGUACHE       PTCLDY    54  28  37 NE8       30.19R
$$

COZ035-036-038>040-210300-
...NORTHERN COLORADO FRONT RANGE...

CITY           SKY/WX    TMP DP  RH WIND       PRES   REMARKS
DENVER INTL AP MOCLDY    62  34  35 N10       30.07R
DMNS CITY PARK   N/A     62  35  36 NW8G21    30.10R
AURORA         MOCLDY    57  37  47 N5        30.11R
FRONT RANGE AP NOT AVBL
ERIE MUNI ARPT CLOUDY    61  39  44 W12G23    30.11R
BOULDER MUN AP LGT RAIN  59  39  47 SW6       30.11R
CENTENNIAL     MOCLDY    61  37  41 N3        30.11R
BROOMFIELD     LGT RAIN  59  37  44 W17G35    30.14R
FORT COLLINS   MOCLDY    61  37  41 SW5       30.08R
LONGMONT       CLOUDY    64  35  33 W9        30.10S
$$

COZ041-046-047-076>085-087-088-210300-
...PIKES PEAK/PALMER DIVIDE AND SOUTHERN FOOTHILLS...

CITY           SKY/WX    TMP DP  RH WIND       PRES   REMARKS
COLO. SPRINGS  PTCLDY    59  36  42 NE12      30.11R
A. F. ACADEMY  MOCLDY    57  35  44 NE10      30.13R
ELLICOTT       NOT AVBL
FALCON         PTCLDY    53  35  51 N7        30.15R
FORT CARSON    MOCLDY    55  35  46 NW5       30.08R
LIMON          CLEAR     50  36  58 N6        30.05R
MONUMENT HILL  DRIZZLE   52  34  50 NW23G40   30.17R
TRINIDAD       CLEAR     57  42  57 W6        30.07R
$$

COZ042>045-048>051-090-091-210300-
...NORTHEAST COLORADO...

CITY           SKY/WX    TMP DP  RH WIND       PRES   REMARKS
GREELEY ARPT   MOCLDY    63  36  36 W9        30.05R
AKRON          PTCLDY    62  37  39 NW10      30.00R
BURLINGTON     CLEAR     62  45  53 NE3       29.98R
WRAY           PTCLDY    67  46  47 CALM      29.96R
STERLING       PTCLDY    63  43  48 NW7       29.97R
HOLYOKE        PTCLDY    61  43  51 S8        29.96R
FORT MORGAN    PTCLDY    57  36  44 NW10      30.02R
$$

COZ086-089-092>099-210300-
...SOUTHEAST COLORADO...

CITY           SKY/WX    TMP DP  RH WIND       PRES   REMARKS
PUEBLO         LGT RAIN  63  42  46 N14       30.04R
LA JUNTA       PTCLDY    61  52  72 W7        29.98R
LAMAR          PTCLDY    61  47  59 CALM      29.93R
SPRINGFIELD      N/A     58  48  69 NW13      29.96R
$$



USA.gov is the U.S. government's official web portal to all federal, state and local government web resources and services.